| time (UTC) | temp F | wind direction | speed MPH | gust MPH | rain 1hr in | rain 24hr in | rain mn in | humidity % | barometer mb |
| 20260508023043 | 48 | 235 | 0.0 | 7.0 | 0.00 | 0.00 | 0.00 | 88 | 1002.6 |
| 20260508021538 | 48 | 286 | 2.0 | 11.0 | 0.00 | 0.00 | 0.00 | 88 | 1002.2 |
| 20260508020035 | 49 | 192 | 0.0 | 6.0 | 0.00 | 0.00 | 0.00 | 88 | 1002.6 |
| 20260508013033 | 49 | 238 | 1.0 | 8.0 | 0.00 | 0.00 | 0.00 | 87 | 1002.6 |
| 20260508011533 | 49 | 144 | 1.0 | 9.0 | 0.00 | 0.00 | 0.00 | 87 | 1002.5 |
| 20260508010039 | 49 | 142 | 0.0 | 12.0 | 0.00 | 0.00 | 0.00 | 88 | 1002.4 |
| 20260508004525 | 50 | 211 | 4.0 | 10.0 | 0.00 | 0.00 | 0.00 | 88 | 1002.3 |
| 20260508003024 | 50 | 207 | 4.0 | 10.0 | 0.00 | 0.00 | 0.00 | 89 | 1002.2 |
| 20260508001531 | 50 | 221 | 4.0 | 9.0 | 0.00 | 0.00 | 0.00 | 89 | 1002.1 |
| 20260508000021 | 50 | 196 | 2.0 | 7.0 | 0.00 | 0.00 | 0.00 | 89 | 1002.0 |
| 20260507234519 | 52 | 211 | 0.0 | 3.0 | 0.00 | 0.00 | 0.00 | 92 | 1001.5 |
| 20260507233015 | 52 | 211 | 0.0 | 3.0 | 0.00 | 0.00 | 0.00 | 89 | 1001.5 |
| 20260507231514 | 52 | 210 | 1.0 | 6.0 | 0.00 | 0.00 | 0.00 | 89 | 1001.4 |
| 20260507230014 | 53 | 209 | 1.0 | 5.0 | 0.00 | 0.00 | 0.00 | 89 | 1001.5 |
| 20260507224512 | 53 | 202 | 1.0 | 4.0 | 0.00 | 0.00 | 0.00 | 89 | 1001.5 |
| 20260507223012 | 53 | 193 | 1.0 | 5.0 | 0.00 | 0.00 | 0.00 | 89 | 1001.5 |
| 20260507221518 | 53 | 200 | 0.0 | 5.0 | 0.00 | 0.00 | 0.00 | 89 | 1001.6 |
| 20260507220013 | 53 | 203 | 1.0 | 5.0 | 0.00 | 0.00 | 0.00 | 89 | 1001.6 |
| 20260507214510 | 53 | 221 | 2.0 | 8.0 | 0.00 | 0.00 | 0.00 | 89 | 1001.5 |
| 20260507213018 | 53 | 222 | 1.0 | 4.0 | 0.00 | 0.00 | 0.00 | 90 | 1001.7 |
| 20260507211509 | 53 | 191 | 0.0 | 5.0 | 0.00 | 0.00 | 0.00 | 89 | 1001.7 |
| 20260507210122 | 52 | 242 | 1.0 | 8.0 | 0.00 | 0.00 | 0.00 | 89 | 1001.8 |
| 20260507204505 | 53 | 232 | 0.0 | 2.0 | 0.00 | 0.00 | 0.00 | 89 | 1001.6 |
| 20260507203013 | 53 | 232 | 0.0 | 3.0 | 0.00 | 0.00 | 0.00 | 89 | 1001.4 |
| 20260507201513 | 53 | 232 | 0.0 | 5.0 | 0.00 | 0.00 | 0.00 | 88 | 1001.7 |
| 20260507200110 | 53 | 247 | 1.0 | 5.0 | 0.00 | 0.00 | 0.00 | 88 | 1002.2 |
| 20260507194557 | 53 | 246 | 2.0 | 7.0 | 0.00 | 0.00 | 0.00 | 88 | 1003.3 |
| 20260507193116 | 54 | 244 | 2.0 | 7.0 | 0.00 | 0.00 | 0.00 | 88 | 1003.6 |
| 20260507191559 | 54 | 246 | 2.0 | 9.0 | 0.00 | 0.00 | 0.00 | 87 | 1003.5 |
| 20260507190051 | 55 | 256 | 0.0 | 9.0 | 0.00 | 0.00 | 0.00 | 87 | 1003.8 |
| 20260507184549 | 55 | 262 | 1.0 | 9.0 | 0.00 | 0.00 | 0.00 | 87 | 1003.8 |
| 20260507183057 | 56 | 275 | 3.0 | 17.0 | 0.00 | 0.00 | 0.00 | 86 | 1004.0 |
| 20260507181545 | 57 | 236 | 1.0 | 7.0 | 0.00 | 0.00 | 0.00 | 85 | 1004.0 |
| 20260507180045 | 58 | 196 | 4.0 | 10.0 | 0.00 | 0.00 | 0.00 | 83 | 1003.8 |
| 20260507174542 | 59 | 194 | 4.0 | 16.0 | 0.00 | 0.00 | 0.00 | 81 | 1003.5 |
| 20260507173103 | 60 | 276 | 4.0 | 13.0 | 0.00 | 0.00 | 0.00 | 80 | 1003.0 |
| 20260507171545 | 60 | 188 | 5.0 | 16.0 | 0.00 | 0.00 | 0.00 | 80 | 1003.5 |
| 20260507170046 | 60 | 341 | 4.0 | 17.0 | 0.00 | 0.00 | 0.00 | 79 | 1003.8 |
| 20260507164539 | 61 | 270 | 4.0 | 12.0 | 0.00 | 0.00 | 0.00 | 77 | 1003.8 |
| 20260507163039 | 61 | 189 | 6.0 | 17.0 | 0.00 | 0.00 | 0.00 | 76 | 1003.9 |
| 20260507161535 | 62 | 200 | 4.0 | 20.0 | 0.00 | 0.00 | 0.00 | 76 | 1004.5 |
| 20260507160055 | 62 | 284 | 8.0 | 18.0 | 0.00 | 0.00 | 0.00 | 74 | 1004.7 |
| 20260507154531 | 63 | 270 | 5.0 | 24.0 | 0.00 | 0.00 | 0.00 | 74 | 1004.8 |
| 20260507153032 | 63 | 250 | 7.0 | 14.0 | 0.00 | 0.00 | 0.00 | 74 | 1005.4 |
| 20260507151526 | 63 | 284 | 6.0 | 14.0 | 0.00 | 0.00 | 0.00 | 74 | 1005.9 |
| 20260507150025 | 62 | 285 | 8.0 | 19.0 | 0.00 | 0.00 | 0.00 | 75 | 1006.0 |
| 20260507144529 | 61 | 297 | 6.0 | 22.0 | 0.00 | 0.00 | 0.00 | 75 | 1006.3 |
| 20260507143019 | 62 | 201 | 4.0 | 19.0 | 0.00 | 0.00 | 0.00 | 75 | 1006.6 |
| 20260507141523 | 61 | 244 | 6.0 | 23.0 | 0.00 | 0.00 | 0.00 | 76 | 1006.7 |
| 20260507140016 | 61 | 261 | 5.0 | 21.0 | 0.00 | 0.00 | 0.00 | 76 | 1006.9 |
| 20260507134515 | 61 | 218 | 5.0 | 25.0 | 0.00 | 0.00 | 0.00 | 76 | 1006.9 |
| 20260507133013 | 61 | 289 | 6.0 | 22.0 | 0.00 | 0.00 | 0.00 | 77 | 1007.3 |
| 20260507131510 | 62 | 269 | 5.0 | 20.0 | 0.00 | 0.00 | 0.00 | 76 | 1007.2 |
| 20260507130017 | 61 | 178 | 7.0 | 16.0 | 0.00 | 0.00 | 0.00 | 76 | 1007.3 |
| 20260507124501 | 60 | 292 | 4.0 | 29.0 | 0.00 | 0.00 | 0.00 | 78 | 1007.6 |
| 20260507123059 | 59 | 227 | 3.0 | 25.0 | 0.00 | 0.00 | 0.00 | 79 | 1007.5 |
| 20260507121558 | 58 | 267 | 3.0 | 14.0 | 0.00 | 0.00 | 0.00 | 80 | 1007.9 |
| 20260507120054 | 57 | 304 | 3.0 | 12.0 | 0.00 | 0.00 | 0.00 | 82 | 1008.1 |
| 20260507114558 | 57 | 224 | 5.0 | 18.0 | 0.00 | 0.00 | 0.00 | 81 | 1008.6 |
| 20260507113052 | 58 | 214 | 5.0 | 17.0 | 0.00 | 0.00 | 0.00 | 80 | 1008.8 |
| 20260507111558 | 57 | 271 | 6.0 | 19.0 | 0.00 | 0.00 | 0.00 | 80 | 1009.6 |
| 20260507110048 | 57 | 183 | 7.0 | 20.0 | 0.00 | 0.00 | 0.00 | 81 | 1009.0 |
| 20260507104545 | 56 | 258 | 4.0 | 14.0 | 0.00 | 0.00 | 0.00 | 82 | 1009.4 |
| 20260507103044 | 56 | 178 | 8.0 | 15.0 | 0.00 | 0.00 | 0.00 | 81 | 1010.0 |
| 20260507101553 | 56 | 270 | 2.0 | 12.0 | 0.00 | 0.00 | 0.00 | 82 | 1009.8 |
| 20260507100042 | 56 | 251 | 2.0 | 13.0 | 0.00 | 0.00 | 0.00 | 82 | 1009.7 |
| 20260507094542 | 56 | 289 | 3.0 | 14.0 | 0.00 | 0.00 | 0.00 | 82 | 1010.2 |
| 20260507093043 | 56 | 209 | 6.0 | 14.0 | 0.00 | 0.00 | 0.00 | 82 | 1011.1 |
| 20260507091538 | 56 | 162 | 2.0 | 9.0 | 0.00 | 0.00 | 0.00 | 83 | 1011.3 |
| 20260507090037 | 56 | 211 | 1.0 | 6.0 | 0.00 | 0.00 | 0.00 | 82 | 1011.1 |
| 20260507084533 | 56 | 231 | 2.0 | 8.0 | 0.00 | 0.00 | 0.00 | 82 | 1010.8 |
| 20260507083033 | 56 | 242 | 0.0 | 8.0 | 0.00 | 0.00 | 0.00 | 82 | 1010.9 |
| 20260507081536 | 56 | 252 | 1.0 | 4.0 | 0.00 | 0.00 | 0.00 | 81 | 1011.3 |
| 20260507080028 | 56 | 232 | 4.0 | 12.0 | 0.00 | 0.00 | 0.00 | 81 | 1011.6 |
| 20260507074526 | 56 | 243 | 3.0 | 9.0 | 0.00 | 0.00 | 0.00 | 81 | 1011.5 |
| 20260507073024 | 56 | 252 | 2.0 | 7.0 | 0.00 | 0.00 | 0.00 | 80 | 1011.8 |
| 20260507071526 | 56 | 253 | 0.0 | 10.0 | 0.00 | 0.00 | 0.00 | 79 | 1012.1 |
| 20260507070020 | 57 | 211 | 2.0 | 9.0 | 0.00 | 0.00 | 0.00 | 78 | 1012.2 |
| 20260507064517 | 58 | 264 | 2.0 | 11.0 | 0.00 | 0.00 | 0.00 | 77 | 1012.1 |
| 20260507063016 | 58 | 253 | 6.0 | 13.0 | 0.00 | 0.00 | 0.00 | 76 | 1012.3 |
| 20260507061515 | 58 | 260 | 3.0 | 10.0 | 0.00 | 0.00 | 0.00 | 75 | 1012.3 |
| 20260507060012 | 57 | 240 | 5.0 | 10.0 | 0.00 | 0.00 | 0.00 | 74 | 1012.3 |
| 20260507054509 | 57 | 264 | 3.0 | 9.0 | 0.00 | 0.00 | 0.00 | 72 | 1012.5 |
| 20260507053009 | 57 | 206 | 4.0 | 10.0 | 0.00 | 0.00 | 0.00 | 72 | 1012.8 |
| 20260507051504 | 57 | 194 | 5.0 | 20.0 | 0.00 | 0.00 | 0.00 | 74 | 1013.1 |
| 20260507050007 | 57 | 193 | 4.0 | 13.0 | 0.00 | 0.00 | 0.00 | 75 | 1013.4 |
| 20260507044559 | 57 | 227 | 5.0 | 14.0 | 0.00 | 0.00 | 0.00 | 75 | 1013.6 |
| 20260507043101 | 57 | 215 | 7.0 | 19.0 | 0.00 | 0.00 | 0.00 | 75 | 1013.8 |
| 20260507041605 | 57 | 175 | 5.0 | 13.0 | 0.00 | 0.00 | 0.00 | 75 | 1014.1 |
| 20260507040057 | 57 | 201 | 7.0 | 14.0 | 0.00 | 0.00 | 0.00 | 75 | 1014.2 |
| 20260507034555 | 56 | 250 | 5.0 | 16.0 | 0.00 | 0.00 | 0.00 | 75 | 1014.3 |
| 20260507033047 | 57 | 265 | 5.0 | 16.0 | 0.00 | 0.00 | 0.00 | 75 | 1014.6 |
| 20260507031545 | 57 | 285 | 8.0 | 17.0 | 0.00 | 0.00 | 0.00 | 75 | 1014.7 |
| 20260507030042 | 57 | 188 | 8.0 | 15.0 | 0.00 | 0.00 | 0.00 | 75 | 1014.9 |
| 20260507024539 | 57 | 265 | 6.0 | 17.0 | 0.00 | 0.00 | 0.00 | 74 | 1015.0 |